Regional Weather Roundup
Issued by NWS

Current Version | Previous Version | Text Only | Print | Product List | Glossary On
Versions: 1 2 3 4 5 6 7 8 9 10 11 12 13 14 15 16 17 18 19 20 21 22 23 24 25 26 27 28 29 30 31 32 33 34 35 36 37 38 39 40 41 42 43 44 45 46 47 48 49 50
000
ASUS43 KOAX 211110
RWRNE

WEATHER ROUNDUP FOR NEBRASKA
NATIONAL WEATHER SERVICE OMAHA NE
500 AM CST MON JAN 21 2019

NOTES: SATELLITE DATA IS BEING USED TO AUGMENT CLOUD COVER ABOVE
       12000 FEET.
       "FAIR" INDICATES FEW OR NO CLOUDS BELOW 12,000 FEET WITH NO
       SIGNIFICANT WEATHER AND/OR OBSTRUCTIONS TO VISIBILITY.


NEZ001>004-019>022-054>056-211200-
NEBRASKA PANHANDLE

CITY           SKY/WX    TMP DP  RH WIND       PRES   REMARKS
SCOTTSBLUFF    PTCLDY    27  27 100 SE10      29.66F WCI  17
ALLIANCE       CLOUDY    28  28 100 S15       29.66F FOG     WCI  16
CHADRON        PTCLDY    34  28  79 S18G25    29.60F WCI  23
GORDON         CLOUDY    32  29  89 SW14G24   29.66F WCI  22
KIMBALL        MIX PCPN  26  25  97 S9        29.65F VSB 1/4 WCI  16
SIDNEY         FOG       27  27 100 S12       29.69F VSB 1/4 WCI  17
$$

NEZ057>060-069>072-079>082-211200-
SOUTHWEST NEBRASKA

CITY           SKY/WX    TMP DP  RH WIND       PRES   REMARKS
NORTH PLATTE   CLOUDY    20  18  92 S14G21    29.83F FOG     WCI   7
IMPERIAL       FOG       22  19  89 SE16      29.76F VSB 1   WCI   8
LEXINGTON      CLOUDY    17  14  89 SE10      29.92S FOG     WCI   4
MCCOOK         FOG       20  19  96 SE14G23   29.87F VSB 1/2 WCI   7
OGALLALA       FOG       25  24  96 SE9       29.77F VSB 1   WCI  15
$$

NEZ005>010-023>029-035>040-094-211200-
NORTH CENTRAL NEBRASKA

CITY           SKY/WX    TMP DP  RH WIND       PRES   REMARKS
VALENTINE      CLOUDY    21  19  92 S20G28    29.80S FOG     WCI   6
AINSWORTH      CLOUDY    15  15  97 CALM      29.83S FOG
BROKEN BOW     CLOUDY    15  12  88 SE15      29.88F FOG     WCI   0
O`NEILL        LGT SNOW  13  11  92 SE6       29.96F WCI   4
ORD            FOG       14  12  92 SE13G22   29.95F VSB 1   WCI   0
THEDFORD       CLOUDY    20  19  94 S12G21    29.81F FOG     WCI   8
$$

NEZ041-046>049-061>064-073>077-083>087-211200-
SOUTH CENTRAL NEBRASKA

CITY           SKY/WX    TMP DP  RH WIND       PRES   REMARKS
GRAND ISLAND   CLOUDY    14  10  84 SE15G24   30.01F WCI  -1
AURORA         CLOUDY    14  12  91 SE17      30.02F WCI  -3
HASTINGS       CLOUDY    16  10  77 SE17G24   29.98F WCI   0
HEBRON         CLOUDY    16  12  82 SE9G16    30.07F WCI   5
HOLDREGE       CLOUDY    16  15  98 SE12      29.93F WCI   3
KEARNEY        CLOUDY    13  11  92 SE16      29.95F WCI  -3
YORK           CLOUDY    14  10  85 MISG      30.06F
$$

NEZ011>018-030>034-042>045-211200-
NORTHEAST NEBRASKA

CITY           SKY/WX    TMP DP  RH WIND       PRES   REMARKS
NORFOLK        CLOUDY    11   8  88 SE17      30.07F WCI  -6
ALBION         LGT SNOW  13  11  91 SE14G21   30.03F WCI  -2
BLAIR          CLOUDY    11   7  83 E14       30.18F WCI  -5
COLUMBUS       FLURRIES  12   9  87 E15G22    30.11F WCI  -4
FREMONT        CLOUDY    13   9  81 E17       30.17F WCI  -3
TEKAMAH        CLOUDY    11   6  81 SE16      30.22F WCI  -6
WAYNE          FLURRIES  10   4  75 SE16      30.14F WCI  -7
$$

NEZ050>053-065>068-078-088>093-211200-
SOUTHEAST NEBRASKA

CITY           SKY/WX    TMP DP  RH WIND       PRES   REMARKS
LINCOLN        CLOUDY    14   9  80 SE13      30.17F WCI   0
OMAHA EPPLEY   CLOUDY    11   4  73 SE15      30.24F WCI  -5
BEATRICE       CLOUDY    15  12  85 E13       30.13F WCI   2
FALLS CITY     MOCLDY    14   9  80 E15       30.22F WCI  -1
NEBRASKA CITY  CLOUDY    13   7  78 SE12      30.20F WCI  -1
PLATTSMOUTH    CLOUDY    11   8  85 E15       30.20F WCI  -5
$$

NEZ044-045-051>053-067-211200-
OMAHA AREA

CITY           SKY/WX    TMP DP  RH WIND       PRES   REMARKS
OMAHA EPPLEY   CLOUDY    11   4  73 SE15      30.24F WCI  -5
BLAIR          CLOUDY    11   7  83 E14       30.18F WCI  -5
FREMONT        CLOUDY    13   9  81 E17       30.17F WCI  -3
MILLARD        CLOUDY    13   8  79 SE10G17   30.22F WCI   0
OFFUTT AFB     CLOUDY    11  11 100 E14       30.22F WCI  -5
PLATTSMOUTH    CLOUDY    11   8  85 E15       30.20F WCI  -5
WAHOO          CLOUDY    12   9  87 E16       30.17F WCI  -5
$$



USA.gov is the U.S. government's official web portal to all federal, state and local government web resources and services.